KINEIS-3A

Last updated on Wed Aug 19 2026 00:02:55 GMT+0000 (Coordinated Universal Time)

1 61223U 24172D 26230.48875433 .00001259 00000+0 20705-3 0 9998 2 61223 98.0413 319.8101 0000945 206.0896 154.0264 14.72322021101944
UTC large
Height (km)
Speed (km/s)
/
Latitude / Longitude
Inclination (degrees)
Orbital Period (minutes)
Azimuth
Elevation
Range (km)
Doppler Factor

Next 0 passes for location: London (51.5072 / 0.1276)

No passes found over London.
KINEIS-3A